• In Hungary
  • List of Countries
  • For 7 days
  • Water Temperature
  • Satellite Maps
  • Weather Map
  • News
  • Weather Widgets
  • user-avatar
    Login

    Hourly Weather Bulanovka

    Today, 17 July, Tuesday

    Time Temperature Precipitation Wind Pressure Humidity
    00:00 +19°C° 0 mm 3 mps 725 mmHg 84%
    01:00 +18°C° 0 mm 3 mps 725 mmHg 86%
    02:00 +18°C° 0 mm 3 mps 725 mmHg 86%
    03:00 +18°C° 0 mm 3 mps 725 mmHg 87%
    04:00 +17°C° 0 mm 3 mps 724 mmHg 92%
    05:00 +18°C° 0.2 mm 3 mps 725 mmHg 90%
    06:00 +19°C° 0.2 mm 3 mps 725 mmHg 89%
    07:00 +19°C° 0.2 mm 4 mps 725 mmHg 87%
    08:00 +19°C° 0.3 mm 4 mps 725 mmHg 87%
    09:00 +20°C° 0.3 mm 4 mps 725 mmHg 86%
    10:00 +20°C° 0 mm 4 mps 725 mmHg 83%
    11:00 +21°C° 0.1 mm 4 mps 725 mmHg 81%
    12:00 +22°C° 0.1 mm 5 mps 725 mmHg 78%
    13:00 +23°C° 0.1 mm 5 mps 725 mmHg 76%
    14:00 +25°C° 0.5 mm 5 mps 725 mmHg 76%
    15:00 +25°C° 0.5 mm 5 mps 724 mmHg 76%
    16:00 +25°C° 0.5 mm 5 mps 724 mmHg 77%
    17:00 +23°C° 1.6 mm 4 mps 724 mmHg 81%
    18:00 +22°C° 1.6 mm 4 mps 724 mmHg 86%
    19:00 +21°C° 1.6 mm 3 mps 723 mmHg 91%
    20:00 +20°C° 1.6 mm 4 mps 723 mmHg 91%
    21:00 +20°C° 1.6 mm 4 mps 723 mmHg 92%
    22:00 +20°C° 1.6 mm 4 mps 723 mmHg 93%
    23:00 +19°C° 0.4 mm 5 mps 723 mmHg 93%

    Tomorrow, 18 July, Wednesday

    Time Temperature Precipitation Wind Pressure Humidity
    00:00 +19°C° 0.4 mm 5 mps 722 mmHg 92%
    01:00 +19°C° 0.4 mm 6 mps 722 mmHg 92%
    02:00 +17°C° 0 mm 5 mps 722 mmHg 92%
    03:00 +17°C° 0 mm 5 mps 722 mmHg 91%
    04:00 +18°C° 0 mm 4 mps 722 mmHg 91%
    05:00 +18°C° 0 mm 4 mps 722 mmHg 90%
    06:00 +18°C° 0 mm 4 mps 721 mmHg 89%
    07:00 +19°C° 0 mm 4 mps 721 mmHg 88%
    08:00 +20°C° 0 mm 5 mps 722 mmHg 84%
    09:00 +21°C° 0 mm 5 mps 722 mmHg 80%
    10:00 +23°C° 0 mm 5 mps 722 mmHg 77%
    11:00 +23°C° 0.3 mm 5 mps 722 mmHg 76%
    12:00 +25°C° 0.3 mm 5 mps 722 mmHg 76%
    13:00 +26°C° 0.3 mm 4 mps 722 mmHg 75%
    14:00 +26°C° 0.7 mm 4 mps 722 mmHg 77%
    15:00 +25°C° 0.7 mm 3 mps 722 mmHg 79%
    16:00 +25°C° 0.7 mm 2 mps 722 mmHg 82%
    17:00 +24°C° 0.3 mm 2 mps 723 mmHg 84%
    18:00 +22°C° 0.3 mm 3 mps 723 mmHg 86%
    19:00 +22°C° 0.3 mm 3 mps 723 mmHg 88%
    20:00 +20°C° 0.9 mm 3 mps 723 mmHg 90%
    21:00 +19°C° 0.9 mm 3 mps 723 mmHg 93%
    22:00 +18°C° 0.9 mm 3 mps 723 mmHg 95%
    23:00 +18°C° 0.6 mm 3 mps 723 mmHg 95%

    Day after tomorrow, 19 July, Thursday

    Time Temperature Precipitation Wind Pressure Humidity
    00:00 +17°C° 0.6 mm 3 mps 723 mmHg 95%
    01:00 +17°C° 0.6 mm 2 mps 723 mmHg 95%
    02:00 +17°C° 0.1 mm 2 mps 723 mmHg 94%
    03:00 +17°C° 0.1 mm 2 mps 723 mmHg 94%
    04:00 +17°C° 0.1 mm 2 mps 723 mmHg 93%
    05:00 +18°C° 0 mm 2 mps 723 mmHg 91%
    06:00 +18°C° 0 mm 2 mps 723 mmHg 89%
    07:00 +19°C° 0 mm 2 mps 723 mmHg 87%
    08:00 +21°C° 0.5 mm 2 mps 724 mmHg 83%
    09:00 +24°C° 0.5 mm 3 mps 724 mmHg 79%
    10:00 +25°C° 0.5 mm 3 mps 724 mmHg 75%
    11:00 +26°C° 0.5 mm 3 mps 724 mmHg 70%
    12:00 +27°C° 0.5 mm 3 mps 724 mmHg 66%
    13:00 +28°C° 0.5 mm 3 mps 724 mmHg 61%
    14:00 +28°C° 0.4 mm 3 mps 725 mmHg 62%
    15:00 +28°C° 0.4 mm 3 mps 725 mmHg 63%
    16:00 +28°C° 0.4 mm 3 mps 725 mmHg 64%
    17:00 +27°C° 0.5 mm 2 mps 725 mmHg 68%
    18:00 +26°C° 0.5 mm 2 mps 725 mmHg 73%
    19:00 +25°C° 0.5 mm 1 mps 725 mmHg 77%
    20:00 +24°C° 0 mm 1 mps 725 mmHg 79%
    21:00 +22°C° 0 mm 1 mps 725 mmHg 81%
    22:00 +21°C° 0 mm 1 mps 725 mmHg 83%
    23:00 +21°C° 0.1 mm 1 mps 725 mmHg 84%

    20 July, Friday

    Time Temperature Precipitation Wind Pressure Humidity
    00:00 +20°C° 0.1 mm 1 mps 725 mmHg 85%
    01:00 +20°C° 0.1 mm 1 mps 725 mmHg 85%
    02:00 +20°C° 0.3 mm 1 mps 725 mmHg 86%
    03:00 +20°C° 0.3 mm 1 mps 725 mmHg 87%
    04:00 +19°C° 0.3 mm 1 mps 725 mmHg 88%
    05:00 +20°C° 0.2 mm 1 mps 725 mmHg 87%
    06:00 +21°C° 0.2 mm 1 mps 725 mmHg 85%
    07:00 +22°C° 0.2 mm 1 mps 726 mmHg 84%
    08:00 +24°C° 0.7 mm 1 mps 726 mmHg 79%
    09:00 +25°C° 0.7 mm 2 mps 726 mmHg 75%
    10:00 +27°C° 0.7 mm 2 mps 726 mmHg 70%
    11:00 +27°C° 0.8 mm 2 mps 726 mmHg 68%
    12:00 +28°C° 0.8 mm 2 mps 726 mmHg 65%
    13:00 +28°C° 0.8 mm 2 mps 726 mmHg 62%
    14:00 +28°C° 0.1 mm 1 mps 726 mmHg 62%
    15:00 +28°C° 0.1 mm 1 mps 726 mmHg 62%
    16:00 +28°C° 0.1 mm 1 mps 726 mmHg 62%
    17:00 +27°C° 0.2 mm 1 mps 726 mmHg 67%
    18:00 +26°C° 0.2 mm 2 mps 726 mmHg 73%
    19:00 +25°C° 0.2 mm 2 mps 726 mmHg 79%
    20:00 +24°C° 0.5 mm 2 mps 726 mmHg 82%
    21:00 +22°C° 0.5 mm 3 mps 726 mmHg 85%
    22:00 +21°C° 0.5 mm 3 mps 726 mmHg 89%
    23:00 +20°C° 0 mm 3 mps 726 mmHg 90%

    21 July, Saturday

    Time Temperature Precipitation Wind Pressure Humidity
    00:00 +19°C° 0 mm 3 mps 726 mmHg 91%
    01:00 +19°C° 0 mm 3 mps 726 mmHg 92%
    02:00 +18°C° 0 mm 3 mps 726 mmHg 93%
    03:00 +18°C° 0 mm 3 mps 726 mmHg 94%
    04:00 +18°C° 0 mm 3 mps 726 mmHg 95%
    05:00 +18°C° 0 mm 4 mps 726 mmHg 92%
    06:00 +19°C° 0 mm 4 mps 727 mmHg 89%
    07:00 +19°C° 0 mm 4 mps 727 mmHg 86%
    08:00 +21°C° 0 mm 5 mps 727 mmHg 82%
    09:00 +22°C° 0 mm 5 mps 727 mmHg 79%
    10:00 +23°C° 0 mm 5 mps 727 mmHg 75%
    11:00 +25°C° 0 mm 5 mps 727 mmHg 72%
    12:00 +26°C° 0 mm 6 mps 727 mmHg 70%
    13:00 +27°C° 0 mm 6 mps 727 mmHg 67%
    14:00 +27°C° 0 mm 6 mps 727 mmHg 67%
    15:00 +27°C° 0 mm 6 mps 727 mmHg 67%
    16:00 +28°C° 0 mm 6 mps 727 mmHg 67%
    17:00 +27°C° 0 mm 5 mps 727 mmHg 71%
    18:00 +26°C° 0 mm 5 mps 727 mmHg 75%
    19:00 +25°C° 0 mm 4 mps 727 mmHg 79%
    20:00 +23°C° 0 mm 5 mps 727 mmHg 78%
    21:00 +22°C° 0 mm 5 mps 727 mmHg 77%
    22:00 +21°C° 0 mm 6 mps 727 mmHg 77%
    23:00 +20°C° 0 mm 6 mps 727 mmHg 76%

    22 July, Sunday

    Time Temperature Precipitation Wind Pressure Humidity
    00:00 +19°C° 0 mm 6 mps 727 mmHg 75%
    01:00 +17°C° 0 mm 6 mps 727 mmHg 74%
    02:00 +16°C° 0 mm 5 mps 727 mmHg 74%
    03:00 +16°C° 0 mm 5 mps 727 mmHg 75%
    04:00 +15°C° 0 mm 5 mps 727 mmHg 75%
    05:00 +16°C° 0 mm 5 mps 727 mmHg 76%
    06:00 +16°C° 0 mm 6 mps 727 mmHg 77%
    07:00 +16°C° 0 mm 6 mps 728 mmHg 79%
    08:00 +19°C° 0 mm 6 mps 728 mmHg 76%
    09:00 +20°C° 0 mm 6 mps 728 mmHg 73%
    10:00 +21°C° 0 mm 7 mps 728 mmHg 70%
    11:00 +22°C° 0 mm 7 mps 728 mmHg 67%
    12:00 +22°C° 0 mm 7 mps 728 mmHg 64%
    13:00 +23°C° 0 mm 6 mps 728 mmHg 60%
    14:00 +23°C° 0 mm 6 mps 728 mmHg 60%
    15:00 +24°C° 0 mm 6 mps 728 mmHg 59%
    16:00 +24°C° 0 mm 6 mps 728 mmHg 59%
    17:00 +23°C° 0 mm 5 mps 728 mmHg 63%
    18:00 +22°C° 0 mm 5 mps 728 mmHg 68%
    19:00 +21°C° 0 mm 4 mps 728 mmHg 72%
    20:00 +20°C° 0 mm 4 mps 728 mmHg 71%
    21:00 +19°C° 0 mm 5 mps 728 mmHg 70%
    22:00 +16°C° 0 mm 5 mps 728 mmHg 69%
    23:00 +15°C° 0 mm 5 mps 728 mmHg 69%
    Show more